Home > Weather > Kunming > Past weeks

Flag for China Past Weather in Kunming, Yunnan, China — Yesterday and Last 2 Weeks

Now
68 °F

Broken clouds.


Feels Like: 68 °F
Forecast: 59 / 76 °F
Wind: 20 mph from Southwest

Location: Kunming Airport

Current Time: Jun 1, 2016 at 9:54:27 AM

Latest Report: Jun 1, 2016 at 9:00 AM


Visibility: N/A

Pressure: 30.12 "Hg (24.11 "Hg at 1909m altitude)

Humidity: 73%

Dew Point: 59 °F

Location of KunmingLocation

Past Weather in Kunming — Graph

°F

Kunming Temperature Yesterday

Maximum temperature yesterday: 79 °F (at 3:00 PM)
Minimum temperature yesterday: 63 °F (at 5:00 AM)
Average temperature yesterday: 70 °F

High & Low Weather Summary for the Past Weeks

 TemperatureHumidityPressure
High81 °F (May 28, 3:00 PM)100% (May 22, 5:00 AM)30.18 "Hg (May 22, 5:00 AM)
Low52 °F (May 24, 4:00 AM)34% (May 18, 2:00 PM)29.92 "Hg (May 19, 6:00 PM)
Average66 °F76%30.05 "Hg
* Reported May 17 8:00 AM — Jun 1 8:00 AM, Kunming, Weather by CustomWeather, © 2016

Note: Actual official high and low records may vary slightly from our data, if they occured in-between our weather recording intervals... More about our weather records

Advertising

Kunming Weather History for the Previous 24 Hours

Scroll right to see more
 ConditionsComfort  
Time TempWeatherWind HumidityBarometerVisibility
8:00 AM
Wed, Jun 1
64 °FBroken clouds.15 mph83%30.09 "HgN/A
7:00 AM64 °FBroken clouds.13 mph83%30.09 "HgN/A
6:00 AM63 °FPartly cloudy.15 mph88%30.07 "HgN/A
5:00 AM63 °FPartly cloudy.15 mph88%30.07 "HgN/A
4:00 AM63 °FPartly cloudy.20 mph88%30.07 "HgN/A
3:00 AM64 °FPartly cloudy.17 mph83%30.07 "HgN/A
2:00 AM64 °FPartly cloudy.17 mph83%30.09 "HgN/A
1:00 AM64 °FPassing clouds.15 mph83%30.09 "HgN/A
12:00 AM64 °FClear.17 mph83%30.09 "Hg10 mi
11:00 PM
Tue, May 31
66 °FClear.15 mph78%30.07 "Hg10 mi
10:00 PM68 °FClear.17 mph69%30.07 "Hg10 mi
9:00 PM70 °FClear.13 mph60%30.04 "Hg10 mi
8:00 PM73 °FClear.15 mph53%30.01 "Hg10 mi
7:00 PM75 °FSunny.17 mph50%29.98 "Hg10 mi
6:00 PM77 °FScattered clouds.17 mph47%29.98 "HgN/A
5:00 PM79 °FScattered clouds.22 mph45%30.01 "HgN/A
4:00 PM77 °FScattered clouds.22 mph47%30.01 "HgN/A
3:00 PM79 °FScattered clouds.20 mph48%30.04 "HgN/A
2:00 PM77 °FScattered clouds.20 mph47%30.04 "HgN/A
1:00 PM75 °FScattered clouds.20 mph54%30.07 "HgN/A
12:00 PM73 °FPartly sunny.20 mph61%30.09 "HgN/A
11:00 AM72 °FPartly sunny.17 mph65%30.09 "HgN/A
10:00 AM70 °FPartly sunny.17 mph69%30.09 "HgN/A
9:00 AM68 °FBroken clouds.20 mph73%30.07 "HgN/A
Weather by CustomWeather, © 2016

See weather overviewHow to use our weather pages